Total_Precipitation_Accumulation
1.18 1.34 1.31 1.04 0.94 0.82 0.71 0.70 0.55 0.41 0.39 0.44 0.44 0.42 0.37 0.33 0.35 0.33 0.29 0.35 0.43 0.45 0.48 0.59 0.67 0.82 0.92 1.00 1.12 1.30 1.48 1.60 1.64 1.68 1.68 1.62 1.75 1.80 1.66 1.58 1.74 1.93 2.05 2.15
1.28 1.05 0.66 0.57 0.60 0.72 0.76 0.76 0.58 0.42 0.42 0.52 0.50 0.47 0.38 0.32 0.34 0.31 0.29 0.32 0.41 0.46 0.50 0.57 0.65 0.79 0.88 1.00 1.06 1.23 1.46 1.56 1.54 1.51 1.59 1.61 1.63 1.69 1.70 1.58 1.60 1.75 1.98 2.20
1.03 0.66 0.46 0.60 0.69 0.82 0.78 0.67 0.54 0.53 0.55 0.62 0.67 0.63 0.40 0.32 0.32 0.32 0.34 0.36 0.43 0.47 0.51 0.56 0.63 0.73 0.86 1.00 1.06 1.09 1.32 1.59 1.61 1.59 1.70 1.76 1.85 1.88 1.85 1.70 1.57 1.62 1.74 1.90
0.81 0.49 0.52 0.70 0.72 0.75 0.75 0.43 0.45 0.57 0.77 0.82 0.74 0.91 0.49 0.34 0.33 0.32 0.36 0.43 0.46 0.48 0.51 0.58 0.63 0.74 0.83 0.98 1.16 1.18 1.24 1.48 1.69 1.69 1.67 1.67 1.74 1.74 1.73 1.65 1.54 1.54 1.67 1.78
0.88 0.53 0.56 0.71 0.58 0.56 0.58 0.40 0.48 0.65 0.88 0.90 0.71 0.90 0.58 0.35 0.37 0.32 0.31 0.37 0.41 0.46 0.54 0.61 0.66 0.78 0.90 1.04 1.22 1.32 1.35 1.37 1.57 1.64 1.59 1.57 1.58 1.62 1.72 1.73 1.64 1.57 1.65 1.77
0.70 0.53 0.58 0.53 0.43 0.46 0.54 0.63 0.78 0.92 1.25 1.31 0.57 0.61 0.60 0.49 0.49 0.38 0.32 0.36 0.40 0.47 0.58 0.63 0.71 0.84 0.99 1.12 1.28 1.39 1.45 1.37 1.42 1.64 1.63 1.51 1.48 1.49 1.59 1.69 1.77 1.73 1.67 1.72
0.93 0.71 0.63 0.54 0.65 0.74 0.86 1.26 1.91 2.01 1.85 1.06 0.32 0.39 0.56 0.46 0.45 0.41 0.39 0.42 0.41 0.47 0.58 0.64 0.73 0.87 0.96 1.07 1.20 1.34 1.39 1.39 1.39 1.53 1.64 1.54 1.44 1.44 1.42 1.49 1.59 1.68 1.69 1.65
1.12 0.97 0.70 0.60 0.75 0.94 0.89 1.10 1.52 1.47 0.93 0.45 0.27 0.40 0.47 0.39 0.33 0.34 0.35 0.40 0.40 0.41 0.49 0.58 0.68 0.80 0.90 0.94 1.05 1.20 1.30 1.30 1.33 1.47 1.64 1.65 1.52 1.50 1.39 1.38 1.46 1.54 1.56 1.53
1.06 0.76 0.48 0.44 0.45 0.60 0.82 0.85 0.79 1.10 0.73 0.48 0.39 0.37 0.37 0.27 0.24 0.27 0.30 0.34 0.38 0.40 0.46 0.52 0.62 0.68 0.74 0.85 0.94 1.04 1.22 1.32 1.32 1.35 1.54 1.75 1.74 1.59 1.47 1.35 1.39 1.45 1.47 1.49
1.15 0.90 0.45 0.45 0.61 0.66 0.72 0.80 0.99 1.39 1.15 0.68 0.40 0.36 0.48 0.39 0.34 0.30 0.31 0.33 0.34 0.39 0.49 0.53 0.57 0.60 0.66 0.76 0.85 0.94 1.11 1.25 1.30 1.30 1.37 1.57 1.81 1.75 1.64 1.59 1.43 1.40 1.41 1.45
1.00 1.13 0.72 0.62 0.84 0.81 0.76 0.96 1.17 1.26 1.01 0.85 0.55 0.48 0.52 0.45 0.38 0.34 0.32 0.31 0.32 0.36 0.44 0.49 0.52 0.59 0.65 0.71 0.82 0.92 1.03 1.14 1.20 1.21 1.25 1.35 1.57 1.76 1.78 1.71 1.56 1.40 1.39 1.37
0.97 1.25 0.92 0.56 0.51 0.52 0.68 0.82 1.02 1.33 1.00 0.68 0.64 0.55 0.36 0.30 0.31 0.30 0.30 0.30 0.31 0.35 0.38 0.43 0.48 0.57 0.62 0.68 0.80 0.87 0.94 1.08 1.16 1.18 1.22 1.28 1.36 1.52 1.73 1.68 1.53 1.37 1.33 1.35
1.53 1.83 1.43 0.99 0.80 0.70 0.81 0.76 0.80 0.97 1.06 0.77 0.68 0.52 0.28 0.20 0.22 0.24 0.27 0.29 0.31 0.35 0.37 0.41 0.49 0.52 0.58 0.68 0.74 0.79 0.86 0.98 1.10 1.18 1.21 1.20 1.26 1.33 1.43 1.56 1.50 1.38 1.30 1.28
1.82 1.93 1.34 1.07 0.88 0.84 0.80 0.60 0.61 0.97 1.26 0.75 0.46 0.39 0.27 0.25 0.28 0.27 0.28 0.29 0.31 0.34 0.37 0.40 0.47 0.51 0.55 0.63 0.72 0.74 0.84 0.94 0.99 1.08 1.12 1.12 1.11 1.16 1.20 1.30 1.47 1.46 1.37 1.28
1.55 1.56 0.74 0.45 0.36 0.44 0.49 0.44 0.45 0.69 0.72 0.63 0.38 0.33 0.36 0.35 0.34 0.35 0.35 0.35 0.32 0.32 0.35 0.40 0.46 0.51 0.56 0.64 0.73 0.78 0.81 0.83 0.87 0.97 1.03 1.07 1.10 1.16 1.19 1.17 1.28 1.44 1.40 1.25
1.37 1.34 0.67 0.40 0.29 0.35 0.39 0.32 0.35 0.41 0.43 0.41 0.30 0.32 0.34 0.33 0.28 0.30 0.33 0.36 0.38 0.38 0.39 0.41 0.46 0.50 0.57 0.65 0.75 0.86 0.86 0.84 0.80 0.87 0.95 1.02 1.11 1.24 1.24 1.18 1.22 1.34 1.41 1.34
1.31 1.33 1.13 0.62 0.31 0.53 0.59 0.41 0.41 0.43 0.43 0.45 0.50 0.43 0.33 0.33 0.33 0.38 0.42 0.44 0.45 0.44 0.45 0.44 0.48 0.53 0.61 0.67 0.76 0.87 0.89 0.87 0.84 0.83 0.89 0.95 1.01 1.18 1.25 1.22 1.28 1.33 1.39 1.45
1.05 1.26 1.58 1.04 0.75 1.03 0.53 0.29 0.32 0.38 0.43 0.48 0.46 0.38 0.37 0.40 0.36 0.37 0.43 0.50 0.51 0.48 0.47 0.47 0.51 0.56 0.59 0.66 0.71 0.78 0.83 0.84 0.88 0.89 0.91 0.95 0.96 1.02 1.16 1.28 1.30 1.32 1.35 1.38
0.64 1.22 1.86 1.56 1.12 0.62 0.29 0.24 0.32 0.43 0.48 0.41 0.37 0.35 0.33 0.30 0.27 0.29 0.31 0.39 0.49 0.50 0.50 0.52 0.55 0.58 0.59 0.61 0.65 0.75 0.81 0.82 0.90 0.97 0.97 0.94 0.90 0.94 1.05 1.17 1.28 1.32 1.34 1.29
0.65 1.20 2.04 1.78 1.36 0.64 0.37 0.23 0.22 0.35 0.58 0.36 0.33 0.36 0.33 0.33 0.42 0.35 0.29 0.36 0.46 0.45 0.48 0.53 0.55 0.53 0.56 0.60 0.62 0.73 0.81 0.79 0.88 0.95 0.99 0.91 0.82 0.80 0.84 0.96 1.16 1.28 1.29 1.23
1.03 1.63 1.96 1.50 1.22 0.53 0.34 0.24 0.26 0.56 0.65 0.35 0.33 0.37 0.37 0.43 0.49 0.39 0.34 0.39 0.44 0.41 0.44 0.47 0.49 0.50 0.59 0.64 0.62 0.69 0.77 0.84 0.89 0.94 1.00 0.91 0.81 0.79 0.81 0.88 1.06 1.20 1.28 1.27
0.83 1.15 1.18 1.11 1.28 0.70 0.35 0.36 0.58 0.67 0.38 0.30 0.28 0.29 0.31 0.30 0.28 0.27 0.31 0.36 0.39 0.36 0.37 0.39 0.43 0.48 0.55 0.62 0.65 0.70 0.77 0.83 0.91 0.96 0.94 0.93 0.89 0.85 0.86 0.91 1.04 1.17 1.25 1.32
0.64 0.83 0.86 0.82 0.72 0.49 0.39 0.48 0.51 0.43 0.33 0.26 0.27 0.25 0.24 0.24 0.24 0.28 0.31 0.33 0.36 0.36 0.36 0.36 0.41 0.45 0.51 0.58 0.65 0.75 0.81 0.80 0.87 0.92 0.95 0.95 0.95 0.92 0.93 0.97 1.06 1.18 1.25 1.30
0.41 0.45 0.61 0.58 0.39 0.32 0.33 0.36 0.36 0.31 0.27 0.23 0.24 0.23 0.22 0.22 0.22 0.26 0.30 0.30 0.32 0.34 0.34 0.36 0.39 0.42 0.51 0.58 0.62 0.72 0.79 0.77 0.77 0.82 0.91 0.91 0.94 0.99 1.02 1.05 1.08 1.16 1.26 1.33
0.36 0.43 0.55 0.52 0.32 0.28 0.27 0.28 0.29 0.24 0.21 0.20 0.21 0.21 0.22 0.22 0.23 0.25 0.29 0.29 0.32 0.37 0.38 0.39 0.42 0.44 0.52 0.59 0.66 0.73 0.74 0.72 0.72 0.75 0.87 0.95 0.99 1.04 1.08 1.09 1.13 1.20 1.21 1.35
0.28 0.39 0.54 0.50 0.33 0.37 0.32 0.26 0.25 0.24 0.23 0.24 0.23 0.23 0.20 0.23 0.27 0.26 0.28 0.30 0.34 0.38 0.41 0.41 0.43 0.47 0.53 0.60 0.72 0.75 0.71 0.69 0.72 0.76 0.83 0.93 1.01 1.03 1.02 1.01 1.07 1.24 1.26 1.29